THORAD AGENA D DEB, 42514

Orbit data source: Space-Track

THORAD AGENA D DEB, 42514 is space debris in SSO originally from a launch on Wed, 08 Apr 1970 UTC launched from the Air Force Western Test Range (AFWTR). Debris objects in space refer to the collection of defunct objects orbiting the Earth. Examples of debris include non-operational satellites, rocket bodies, and fragments generated from explosions, collisions, or faulty payload assembly.

Loading next visibility...
Identifier
42514, 1970-025RU
Orbit
SSO
Country
Flag of USUS
Related business
Manufacturer
Unknown
Mission
Spacecraft
Bus & Motor
Unknown
Mass
Unknown
Launch date (UTC)
1970-04-08 (56 years ago)
Launch vehicle
Unknown
Launch site
Air Force Western Test Range (AFWTR)
Object type
Payload
Rocket body
Debris
Shape & HBR
Unknown shape, 0.1 m
Radar Cross Section
Small (<0.1 m²)

Expand to show TLE details & history
Last TLE update: 4 days ago

TLE from 4 days ago
0 THORAD AGENA D DEB
1 42514U 70025RU  26032.32347187  .00000358  00000-0  86089-3 0  9998
2 42514  99.3733 168.6297 0184135 276.2299  81.7875 13.23248840588631
Epoch: 2026-02-01T07:45Z
TLE epoch observation values (Epoch: 2026-02-01T07:45:47.969Z)
Latitude
-0.00005°
Longitude
-79.35492°
Altitude
1,157.751 km
Speed
7.283 km/s
True Right ascension
11h 14m 31s
True Declination
0° 00' 00"
Sunlit
Object was in full shadow at epoch
Visualization orbit readout
Latitude
Unknown
Longitude
Unknown
Altitude
Unknown
Speed
Unknown
Apparent Right ascension
Unknown
Apparent Declination
Unknown
Sunlit
N/A
Visualization observer readout
Local Sidereal Time
14:52:35
Azimuth
Unknown
Elevation
Unknown
Doppler factor
Unknown
Orbital elements
Apogee altitude
1,308.637 km
Perigee altitude
1,030.674 km
Semi-major axis
7,547.793 km
Eccentricity
0.01841
Inclination
99.3733°
RAAN
168.6297°
Arg. of periapsis
276.2299°
True anomaly
83.88231°
Mean anomaly
81.7875°
Eccentric anomaly
82.83428°
Mean motion
3.30989 °/min
Orbital period
108.77 mins
BSTAR
0.00086089

Documentation

Showing up to 5 results
|